Regional Weather Roundup
Issued by NWS

Home | Current Version | Previous Version | Text Only | Print | Product List | Glossary On
Versions: 1 2 3 4 5 6 7 8 9 10 11 12 13 14 15 16 17 18 19 20 21 22 23 24 25 26 27
000
ASPQ40 PGUM 240412
RWRPQ
WEATHER ROUNDUP FOR THE MARIANAS AND MICRONESIA
NATIONAL WEATHER SERVICE TIYAN GU
200 PM GSST THU APR 24 2014

GUZ001>004-240500-
MARIANA ISLANDS-

CITY           SKY/WX    TMP DP  RH WIND       PRES   REMARKS
GUAM AIRPORT   PTSUNNY   88  72  58 E13       29.83F HX  94
ANDERSEN AFB   PTSUNNY   84  73  70 NE15G22   29.83F HX  91
ROTA AIRPORT   MOSUNNY   84  73  70 NE15      29.84F HX  91
TINIAN AP      MOSUNNY   84  70  61 NE16      29.83F
SAIPAN AP      SUNNY     88  73  62 E14G21    29.83F HX  96

$$

PMZ161-240500-
REPUBLIC OF PALAU-

CITY           SKY/WX    TMP DP  RH WIND       PRES   REMARKS
KOROR AP       MOSUNNY   88  75  66 NE9       29.80F HX  97
KOROR WSO      PTSUNNY   88  75  66 N12       29.82F HX  97

$$

PMZ171>174-240500-
FEDERATED STATES OF MICRONESIA-

CITY           SKY/WX    TMP DP  RH WIND       PRES   REMARKS
YAP AIRPORT    MOSUNNY   88  73  62 E12       29.80F HX  96
CHUUK AP       CLOUDY    84  79  84 NE9       29.69F HX  96
POHNPEI AP     NOT AVBL
POHNPEI WSO    CLOUDY    86  79  79 NE9       29.74F HX  99
KOSRAE AP      NOT AVBL

$$

PMZ181-240500-
REPUBLIC OF THE MARSHALL ISLANDS-

CITY           SKY/WX    TMP DP  RH WIND       PRES   REMARKS
KWAJALEIN AP   SUNNY     81  72  74 SE13      29.77S
MAJURO AP      NOT AVBL
MAJURO WSO     PTSUNNY   82  77  83 NE9       29.75R HX  91

$$




USA.gov is the U.S. government's official web portal to all federal, state and local government web resources and services.